Weather History for LEBL - March, 2013

Change the Weather History Date:

Monday, March 25, 2013

  Actual Average Record
Temperature  
Mean Temperature 58 °F -  
Max Temperature 69 °F 62 °F 69 °F (2013)
Min Temperature 48 °F 48 °F 44 °F (1998)
Degree Days  
Heating Degree Days 6    
Growing Degree Days 8 (Base 50)    
Moisture  
Dew Point 47 °F    
Average Humidity 72    
Maximum Humidity 100    
Minimum Humidity 23    
Precipitation  
Precipitation 0.00 in 0.07 in - ()
Sea Level Pressure  
Sea Level Pressure 29.63 in    
Wind  
Wind Speed 8 mph ()    
Max Wind Speed 31 mph    
Max Gust Speed 28 mph    
Visibility 5.0 miles    
Events Fog    
Averages and records for this station are not official NWS values.
T = Trace of Precipitation, MM = Missing Value Source: Averaged Metar Reports

Daily Weather History Graph

Daily Weather History Graph

Search for Another Location

Airport or City:

Trip Planner

Search our weather history database for the weather conditions in past years. The results will help you decide how hot, cold, wet, or windy it might be!

Date:

Astronomy

Mar. 25, 2013 Rise Set
Actual Time 6:46 AM CET 7:09 PM CET
Civil Twilight 6:19 AM CET 7:37 PM CET
Nautical Twilight 5:46 AM CET 8:09 PM CET
Astronomical Twilight 5:13 AM CET 8:42 PM CET
Moon 5:23 PM CET (3/25) 5:22 AM CET (3/25)
Length of Visible Light 13h 18m
Length of Day
12h 22m
Waxing Gibbous, 95% of the Moon is Illuminated
Mar 25
Waxing Gibbous
Mar 27
Full
Apr 3
Last Quarter
Apr 10
New
Apr 18
First Quarter

Hourly Weather History & Observations

Time (CET) Temp. Dew Point Humidity Pressure Visibility Wind Dir Wind Speed Gust Speed Precip Events Conditions
12:00 AM 53.6 °F 51.8 °F 94% 29.62 in 3.1 mi NW 2.3 mph - N/A   Partly Cloudy
12:30 AM 53.6 °F 51.8 °F 94% 29.62 in 2.2 mi NW 3.5 mph - N/A   Partly Cloudy
1:00 AM 52 °F 51 °F 93% 29.63 in 2 mi North 4.6 mph - -   Mist
1:00 AM 53.6 °F 51.8 °F 94% 29.62 in 2.2 mi North 3.5 mph - N/A   Partly Cloudy
1:30 AM 51.8 °F 51.8 °F 100% 29.62 in 1.9 mi Calm Calm - N/A   Partly Cloudy
2:00 AM 51.8 °F 50.0 °F 94% 29.62 in 1.9 mi WNW 4.6 mph - N/A   Partly Cloudy
2:30 AM 51.8 °F 50.0 °F 94% 29.62 in 2.2 mi NW 5.8 mph - N/A   Partly Cloudy
3:00 AM 50.0 °F 50.0 °F 100% 29.62 in 3.7 mi NW 5.8 mph - N/A   Light Drizzle
3:30 AM 50.0 °F 48.2 °F 94% 29.62 in 3.7 mi NW 4.6 mph - N/A   Partly Cloudy
4:00 AM 50.0 °F 48.2 °F 94% 29.62 in 1.6 mi NW 5.8 mph - N/A   Partly Cloudy
4:30 AM 50.0 °F 48.2 °F 94% 29.62 in 0.8 mi NW 6.9 mph - N/A   Partly Cloudy
5:00 AM 50.0 °F 48.2 °F 94% 29.65 in 0.4 mi NW 8.1 mph - N/A Fog Fog
5:10 AM 50.0 °F 50.0 °F 100% 29.62 in 1.2 mi NW 9.2 mph - N/A Fog Scattered Clouds
5:30 AM 50.0 °F 50.0 °F 100% 29.65 in 1.6 mi NW 8.1 mph - N/A Fog Partly Cloudy
6:00 AM 50.0 °F 50.0 °F 100% 29.65 in 1.4 mi NW 4.6 mph - N/A   Partly Cloudy
6:30 AM 50.0 °F 48.2 °F 94% 29.65 in 1.6 mi Calm Calm - N/A   Partly Cloudy
7:00 AM 48 °F 47 °F 97% 29.68 in 2 mi North 4.6 mph - -   Mist
7:00 AM 50.0 °F 48.2 °F 94% 29.65 in 2.5 mi North 8.1 mph - N/A   Partly Cloudy
7:30 AM 48.2 °F 48.2 °F 100% 29.68 in 5.0 mi NW 8.1 mph - N/A   Partly Cloudy
8:00 AM 51.8 °F 46.4 °F 82% 29.68 in 6.2 mi WNW 9.2 mph - N/A   Partly Cloudy
9:00 AM 55.4 °F 46.4 °F 72% 29.68 in - NW 10.4 mph - N/A   Clear
9:30 AM 55.4 °F 46.4 °F 72% 29.68 in - NW 5.8 mph - N/A   Clear
10:00 AM 57.2 °F 48.2 °F 72% 29.68 in 6.2 mi SSW 5.8 mph - N/A   Partly Cloudy
11:00 AM 60.8 °F 48.2 °F 63% 29.68 in 6.2 mi South 6.9 mph - N/A   Partly Cloudy
11:30 AM 62.6 °F 46.4 °F 55% 29.68 in 6.2 mi SW 5.8 mph - N/A   Partly Cloudy
12:00 PM 64.4 °F 48.2 °F 56% 29.65 in 6.2 mi SW 5.8 mph - N/A   Partly Cloudy
12:30 PM 66.2 °F 39.2 °F 37% 29.65 in 6.2 mi South 2.3 mph - N/A   Partly Cloudy
1:00 PM 67 °F 38 °F 23% 29.66 in 19 mi NW 16.1 mph - -   Scattered Clouds
1:30 PM 68.0 °F 39.2 °F 35% 29.65 in 6.2 mi NW 16.1 mph 27.6 mph N/A   Partly Cloudy
2:00 PM 68.0 °F 37.4 °F 33% 29.62 in 6.2 mi West 17.3 mph - N/A   Partly Cloudy
2:30 PM 68.0 °F 46.4 °F 46% 29.62 in 6.2 mi West 18.4 mph - N/A   Partly Cloudy
3:00 PM 66.2 °F 46.4 °F 49% 29.62 in 6.2 mi WSW 21.9 mph - N/A   Partly Cloudy
3:30 PM 66.2 °F 46.4 °F 49% 29.62 in 6.2 mi WSW 21.9 mph - N/A   Partly Cloudy
4:00 PM 64.4 °F 46.4 °F 52% 29.62 in 6.2 mi SW 21.9 mph - N/A   Partly Cloudy
4:30 PM 62.6 °F 48.2 °F 59% 29.62 in 6.2 mi SW 26.5 mph - N/A   Partly Cloudy
5:00 PM 60.8 °F 48.2 °F 63% 29.62 in 6.2 mi SW 31.1 mph - N/A   Partly Cloudy
5:30 PM 60.8 °F 48.2 °F 63% 29.62 in 6.2 mi WSW 31.1 mph - N/A   Partly Cloudy
6:00 PM 60.8 °F 46.4 °F 59% 29.62 in 6.2 mi WSW 29.9 mph - N/A   Partly Cloudy
6:30 PM 60.8 °F 50.0 °F 68% 29.62 in 6.2 mi WSW 26.5 mph - N/A   Partly Cloudy
7:00 PM 59 °F 50 °F 64% 29.64 in 11 mi SW 16.1 mph - -   Scattered Clouds
7:00 PM 60.8 °F 51.8 °F 72% 29.62 in 6.2 mi WSW 20.7 mph - N/A   Partly Cloudy
7:30 PM 60.8 °F 48.2 °F 63% 29.62 in 6.2 mi WSW 17.3 mph - N/A   Partly Cloudy
8:00 PM 62.6 °F 44.6 °F 52% 29.62 in 6.2 mi WSW 16.1 mph - N/A   Partly Cloudy
8:30 PM 60.8 °F 42.8 °F 52% 29.62 in 6.2 mi WSW 17.3 mph - N/A   Partly Cloudy
9:00 PM 60.8 °F 44.6 °F 55% 29.62 in 6.2 mi WSW 17.3 mph - N/A   Partly Cloudy
9:30 PM 60.8 °F 44.6 °F 55% 29.62 in 6.2 mi WSW 13.8 mph - N/A   Partly Cloudy
10:00 PM 60.8 °F 44.6 °F 55% 29.62 in 6.2 mi WSW 9.2 mph - N/A   Partly Cloudy
10:30 PM 60.8 °F 46.4 °F 59% 29.59 in 6.2 mi NNW 4.6 mph - N/A   Partly Cloudy
11:00 PM 59.0 °F 44.6 °F 59% 29.59 in 6.2 mi WNW 3.5 mph - N/A   Scattered Clouds
11:30 PM 59.0 °F 46.4 °F 63% 29.56 in 6.2 mi North 10.4 mph - N/A   Partly Cloudy